Voltar ao catálogo

BREEZE-KM R/B

AtivoPO
NORAD 44518·ROCKET BODY·🇷🇺 Russia

Lançado Aug 30, 2019 de Plesetsk Cosmodrome

Loading…

Próximas Passagens (próximas 24 horas)

TLE

AtualizadoSource: Space-Track

Época: Sep 14, 2026, 20:32 UTC

1 44518U 19057B   26257.85573343  .00000036  00000-0  29761-4 0  9992
2 44518  99.1794  47.4465 0199858  76.7874 285.5515 14.25548407366323

Acompanhe BREEZE-KM R/B em tempo real com AllMySat

Download on the App Store